Starlink 32338

operational
NORAD ID: 61519 Int'l Des: 2024-183 Owner: SPXS Country: US Constellation: starlink
LEOCIRCULAR

Starlink 32338について

説明を読み込み中...

リアルタイム位置

3D地球を読み込み中...

次回通過

高度履歴

Altitude vs Time

uPlot chart will show altitude changes over time

軌道要素

1 61519U 24183L 25259.22674682 .00001622 00000-0 66906-4 0 9992
2 61519 53.1575 232.6415 0001658 91.5497 268.5694 15.30198095 52949
Epoch: Sep 16, 2025 • Age: 7 hours

現在のステータス

高度 486.9 km
速度 7.62 km/s
衛星直下点 -34.40°S, 104.15°W
打ち上げ日 Oct 15, 2024
運用期間 0.9 years
タイプ internet

技術仕様

分類 Payload
質量 730.00 kg
乾燥質量 700.00 kg
総質量 730.00 kg
長さ 0.30 m
直径 4.10 m
スパン 29.00 m
形状 Box + pan
製造者 SPXS
バスタイプ Starlink V2M
フェーズステータス In Orbit
所有者/国 SPXS/US

大規模コンステレーション

Loading constellations...